Weather in San Fernando de Monte Cristi

Dominican Republic     19°50′59″N   71°38′27″W
temp.,
°C
wind,
m/s
gust,
m/s
humid.,
%
clouds,
%
prec.,
mm/h
press.,
hPa
HPBL,
m
6 may, thu
thu623:00+25e57802 0.3 1017286
02:00+24e69760 0.3 1015536
05:00+23ese57810 0.0 1015330
08:00+25ese44740 0.0 1017401
11:00+29nnw23531 0.0 1017906
14:00+29n97594 0.0 1015783
17:00+29ne995865 0.0 1014745
20:00+26ene69721 0.0 1015447
7 may, fri
fri723:00+25e34750 0.1 1016171
02:00+24e57750 0.1 1015356
05:00+23se34830 0.0 1014164
08:00+25ese33710 0.0 1016305
11:00+29nnw32560 0.0 1015884
14:00+28nne87590 0.0 1014510
17:00+29nne656023 0.0 1013840
20:00+26nne467049 0.0 1015280
8 may, sat
sat823:00+26nnw12776 0.2 1016151
02:00+25ssw23774 0.3 1014180
05:00+24s23810 1.5 1015172
08:00+25ese44745 1.8 1016243
11:00+30n32515 0.0 1016834
14:00+29n88615 0.0 1014503
17:00+28n5460100 0.0 1015782
20:00+26nne247795 0.8 1016324
9 may, sun
sun923:00+25ne368337 1.5 1017320
02:00+24ese44856 2.4 1016206
05:00+23e34844 0.0 1016173
08:00+25ese46746 0.0 1018420
11:00+31ene35485 0.0 1017935
14:00+30nne109580 0.0 1015952
17:00+29ne99640 0.1 1015965
20:00+26ene8107418 1.2 1017561
10 may, mon
mon1023:00+25ese5107813 1.2 1018784
02:00+25ese711782 1.2 1016593
05:00+24e68830 0.0 1016386
08:00+25ese45750 0.0 1018483
11:00+30ene365544 0.0 10171017
14:00+31ne96565 0.2 10141256
17:00+29e6762100 0.1 1014363
20:00+26sse347954 2.8 1016143